Home   Weather   Nzérékoré   Past weeks

Flag for Guinea Past Weather in Nzérékoré, Guinea — Yesterday and Last 2 Weeks

Now
88 °F

Partly sunny.


Feels Like: 102 °F
Forecast: 70 / 84 °F
Wind: No wind

Location: Roberts Field

Current Time: Sep 30, 2016 at 1:33:11 PM

Latest Report: Sep 30, 2016 at 1:00 PM


Visibility: N/A

Pressure: 29.92 "Hg

Humidity: 75%

Dew Point: 79 °F

Location of NzérékoréLocation

Past Weather in Nzérékoré — Graph

°F

Nzérékoré Temperature Yesterday

Maximum temperature yesterday: 79 °F (at 9:30 AM)
Minimum temperature yesterday: 75 °F (at 6:30 AM)
Average temperature yesterday: 76 °F

High & Low Weather Summary for the Past Weeks

 TemperatureHumidityPressure
High88 °F (Sep 17, 2:00 PM)100% (Sep 24, 11:00 PM)30.01 "Hg (Sep 24, 11:00 PM)
Low73 °F (Sep 22, 12:00 AM)66% (Sep 17, 2:00 PM)29.80 "Hg (Sep 25, 3:30 PM)
Average79 °F89%29.91 "Hg
* Reported Sep 15 12:00 PM — Sep 30 12:00 PM, Nzérékoré, Weather by CustomWeather, © 2016

Note: Actual official high and low records may vary slightly from our data, if they occured in-between our weather recording intervals... More about our weather records

Advertising

Nzérékoré Weather History for the Previous 24 Hours

Scroll right to see more
 ConditionsComfort  
Time TempWeatherWind HumidityBarometerVisibility
12:00 PM
Fri, Sep 30
86 °FPartly sunny.No wind75%29.95 "HgN/A
11:30 AM86 °FPartly sunny.No wind75%29.95 "HgN/A
11:00 AM84 °FPartly sunny.5 mph79%29.95 "HgN/A
10:30 AM82 °FPartly sunny.No wind84%29.95 "HgN/A
10:00 AM81 °FBroken clouds.No wind84%29.95 "HgN/A
9:30 AM79 °FBroken clouds.No wind89%29.95 "HgN/A
9:00 AM79 °FBroken clouds.No wind89%29.95 "HgN/A
8:30 AM77 °FBroken clouds.No wind94%29.95 "HgN/A
8:00 AM77 °FBroken clouds.No wind94%29.95 "HgN/A
7:30 AM75 °FBroken clouds.No wind94%29.92 "HgN/A
7:00 AM75 °FPartly cloudy.No wind94%29.92 "HgN/A
6:30 AM75 °FPartly cloudy.No wind94%29.89 "HgN/A
6:00 AM75 °FPassing clouds.No wind94%29.89 "HgN/A
5:00 AM75 °FPassing clouds.No wind94%29.89 "HgN/A
4:30 AM75 °FPassing clouds.No wind94%29.89 "HgN/A
4:00 AM75 °FPassing clouds.No wind94%29.89 "Hg6 mi
3:30 AM75 °FPassing clouds.No wind94%29.89 "Hg5 mi
3:09 AM75 °FLight rain. Passing clouds.No wind94%29.89 "Hg5 mi
3:00 AM75 °FPassing clouds.No wind94%29.92 "HgN/A
2:30 AM75 °FPassing clouds.No wind94%29.92 "HgN/A
2:00 AM75 °FPassing clouds.No wind94%29.92 "HgN/A
1:00 AM75 °FPassing clouds.No wind94%29.92 "HgN/A
12:30 AM75 °FPassing clouds.No wind94%29.92 "HgN/A
12:00 AM75 °FPassing clouds.No wind94%29.95 "HgN/A
11:30 PM
Thu, Sep 29
75 °FPassing clouds.No wind94%29.95 "HgN/A
11:00 PM75 °FPassing clouds.No wind94%29.95 "HgN/A
10:30 PM75 °FPassing clouds.No wind94%29.92 "HgN/A
10:00 PM75 °FPassing clouds.No wind94%29.92 "HgN/A
9:30 PM75 °FPassing clouds.No wind94%29.92 "HgN/A
9:00 PM75 °FPassing clouds.No wind94%29.95 "HgN/A
8:30 PM75 °FPassing clouds.No wind94%29.95 "HgN/A
8:00 PM75 °FPassing clouds.No wind94%29.92 "HgN/A
7:30 PM75 °FPartly sunny.No wind94%29.92 "HgN/A
7:00 PM77 °FPartly sunny.No wind94%29.89 "HgN/A
6:30 PM77 °FRain. Partly sunny.No wind94%29.89 "HgN/A
6:00 PM77 °FRain. More clouds than sun.No wind94%29.89 "Hg6 mi
5:30 PM77 °FRain. More clouds than sun.No wind94%29.86 "Hg6 mi
5:00 PM77 °FRain. More clouds than sun.No wind94%29.86 "Hg6 mi
4:30 PM75 °FThunderstorms. More clouds than sun.No wind94%29.86 "HgN/A
4:00 PM75 °FThunderstorms. Mostly cloudy.No wind94%29.86 "Hg6 mi
3:30 PM75 °FThunderstorms. Mostly cloudy.No wind94%29.86 "Hg6 mi
3:00 PM75 °FThunderstorms. Mostly cloudy.No wind94%29.86 "Hg4 mi
2:30 PM75 °FThunderstorms. Mostly cloudy.9 mph94%29.86 "Hg5 mi
2:00 PM75 °FThunderstorms. Mostly cloudy.No wind94%29.89 "Hg4 mi
1:30 PM75 °FThunderstorms. Mostly cloudy.No wind94%29.89 "Hg4 mi
Weather by CustomWeather, © 2016

See weather overviewHow to use our weather pages